Location: St Paul
(33.9360°N, 83.4200°W)
Time: 08:59:14
(UTC-05:00)

Cosmos 2322 Rocket - Pass Details

Date: 06 October 2017
Orbit: 833 x 850 km, 71.0° (Epoch: 16 December)

Event Time Altitude Azimuth Distance (km) Brightness Sun altitude
Rises 20:26:14 0° 356° (N) 3,383 5.5 -16.5°
Reaches altitude 10° 20:29:29 10° 15° (NNE) 2,446 4.5 -17.1°
Enters shadow 20:32:41 18° 50° (NE) 1,944 3.7 -17.8°
